Regional Weather Roundup
Issued by NWS

Home | Current Version | Previous Version | Graphics & Text | Print | Product List | Glossary On
Versions: 1 2 3 4 5 6 7 8 9 10 11 12 13 14 15 16 17 18 19 20 21 22 23 24 25 26 27 28 29 30 31 32 33 34 35 36 37 38 39 40 41 42 43 44 45 46 47 48 49 50
000
ASUS43 KDTX 070510
RWRMI
MICHIGAN HOURLY REGIONAL WEATHER ROUNDUP
NATIONAL WEATHER SERVICE DETROIT/PONTIAC MI
1200 AM EST SUN FEB 07 2016

NOTE: "FAIR" INDICATES FEW OR NO CLOUDS BELOW 12,000 FEET WITH NO
SIGNIFICANT WEATHER AND/OR OBSTRUCTION TO VISIBILITY.

MIZ047>049-052>055-059>063-066>070-074>076-081>083-070600-
SOUTHEAST LOWER MICHIGAN

CITY           SKY/WX    TMP DP  RH WIND       PRES   REMARKS
ADRIAN         CLOUDY    31  26  82 SW6       30.14F WCI  25
ALMA           CLOUDY    33  28  83 SW7       30.06F WCI  26
ANN ARBOR      CLOUDY    33  25  72 SW8       30.12F WCI  26
BAD AXE        CLOUDY    33  26  78 SW7       30.07F WCI  26
CARO           CLOUDY    31  23  70 S6        30.07F WCI  26
DETROIT CITY   CLOUDY    34  23  64 SW7       30.13F WCI  28
DETROIT        CLOUDY    33  25  72 S7        30.14F WCI  27
FLINT          CLOUDY    35  23  61 SW7       30.08F WCI  29
GROSSE ILE     PTCLDY    34  27  75 S5        30.13F WCI  30
HILLSDALE      CLOUDY    31  25  77 S6        30.10F WCI  26
HOWELL         CLOUDY    33  26  75 SW6       30.08F WCI  28

CITY           SKY/WX    TMP DP  RH WIND       PRES   REMARKS
JACKSON        CLOUDY    33  25  72 SW9       30.10F WCI  25
LAMBERTVILLE   CLOUDY    32  25  75 SW5       30.15F WCI  27
LANSING        CLOUDY    32  25  75 SW8       30.08F WCI  25
LAPEER         CLOUDY    32  24  70 SW6       30.08F WCI  27
MASON          CLOUDY    32  27  81 S3        30.09F
MONROE         MOCLDY    33  26  75 SW5       30.14S WCI  28
MT. CLEMENS    CLOUDY    33  24  71 S6        30.11F WCI  27
PONTIAC        CLOUDY    33  22  63 SW5       30.09F WCI  29
PORT HOPE        N/A     33  26  75 SW7       30.05F WCI  27
PORT HURON     CLOUDY    32  25  74 S6        30.11F WCI  26
TRI CITIES     CLOUDY    34  24  67 S8        30.07F WCI  27
MIDLAND        CLOUDY    32  26  78 SW6       30.06S WCI  27
TROY           CLOUDY    35  24  64 SW7       30.13F WCI  29
SAGINAW HB     CLOUDY    34  27  75 S10       30.07F WCI  26
$$
MIZ043>046-050>051-056>058-064>065-071>073-077>080-070600-
SOUTHWEST LOWER MICHIGAN

CITY           SKY/WX    TMP DP  RH WIND       PRES   REMARKS
BATTLE CREEK   CLEAR     31  26  82 S9        30.09F WCI  23
BENTON HARBOR  CLEAR     34  27  75 S7        30.08F WCI  28
BIG RAPIDS     CLOUDY    32  30  92 S3        30.02F
COLDWATER      CLEAR     32  26  78 S5        30.10F WCI  28
FREMONT        CLOUDY    31  31  98 S6        30.03F WCI  25
HOLLAND        PTCLDY    32  28  85 S7        30.06F WCI  26
GRAND RAPIDS   CLOUDY    33  27  78 S9        30.06F WCI  25
IONIA          MOCLDY    32  26  79 S12       30.06F WCI  23
KALAMAZOO      CLEAR     30  25  81 S7        30.09F WCI  23
LUDINGTON      CLOUDY    32  29  91 S6        30.02S WCI  26
MARSHALL       CLEAR     32  27  81 S5        30.09F WCI  27
MOUNT PLEASANT CLOUDY    32  28  82 S5        30.04F WCI  28
MUSKEGON       PTCLDY    35  31  85 S9        30.04F WCI  28
SOUTH HAVEN    PTCLDY    32  28  85 S6        30.07F WCI  27
$$
MIZ016>042-070600-
NORTHERN LOWER MICHIGAN

CITY           SKY/WX    TMP DP  RH WIND       PRES   REMARKS
ALPENA         CLOUDY    29  24  82 S5        30.02F WCI  24
BEAVER ISLAND  CLOUDY    34  29  83 SW10      29.96S WCI  26
BELLAIRE       CLOUDY    31  26  83 S6        30.00F WCI  25
CADILLAC       CLOUDY    30  27  91 SW10      29.98S WCI  21
CHARLEVOIX     MOCLDY    32  27  83 S6        30.00F WCI  26
FRANKFORT      MOCLDY    33  28  84 S7        29.98F WCI  26
GAYLORD        CLOUDY    29  24  82 SW12      29.96F WCI  19
GRAYLING       CLOUDY    29  26  86 S3        29.99F
HARBOR SPRINGS CLOUDY    30  26  83 SW6       29.98F WCI  24
HOUGHTON LAKE  CLOUDY    30  25  81 SW7       30.00F WCI  23
MANISTEE       CLOUDY    30  25  80 S3        30.01F
OSCODA         CLOUDY    31  26  80 S8        30.03F WCI  24
PELLSTON       CLOUDY    30  24  78 S7        29.98F WCI  23
ROGERS CITY    CLOUDY    28  23  81 CALM      30.02S
TRAVERSE CITY  CLOUDY    32  25  75 VRB6      29.98F WCI  26
$$
MIZ007>008-015-070600-
EASTERN UPPER MICHIGAN

CITY           SKY/WX    TMP DP  RH WIND       PRES   REMARKS
KINROSS        CLOUDY    27  27 100 SE6       29.95F WCI  20
MACKINAC ISLAN CLOUDY    30  26  85 S9G16     29.96F WCI  21
NEWBERRY       LGT SNOW  29  27  94 SW7       29.93S WCI  22
S. S. MARIE    LGT SNOW  26  23  88 E3        29.96S FOG
MUNISING         N/A     29  26  89 S9        29.87F WCI  20
$$
MIZ004>006-011>014-085-070600-
CENTRAL UPPER MICHIGAN

CITY           SKY/WX    TMP DP  RH WIND       PRES   REMARKS
MANISTIQUE     CLOUDY    32  27  84 SW9       29.93F WCI  24
ESCANABA       CLOUDY    30  27  86 SW16      29.91F WCI  19
MENOMINEE      CLOUDY    30  23  74 SW9       29.93F WCI  22
SAWYER-GWINN   LGT SNOW  27  24  90 S15       29.83F WCI  15
$$
MIZ001>003-009>011-084-070600-
WESTERN UPPER MICHIGAN

CITY           SKY/WX    TMP DP  RH WIND       PRES   REMARKS
IRON MOUNTAIN  LGT SNOW  29  23  78 S10       29.84F WCI  20
HOUGHTON       LGT SNOW  28  26  92 SE8       29.73F VSB 3/4 WCI  20
COPPER HARBOR    N/A     30  28  92 SW9       29.78F WCI  22
IRONWOOD       CLOUDY    30  25  80 SW14      29.69S WCI  20
$$

ABBREVIATIONS USED IN REMARKS
   TC - TEMPERATURE IN CELSIUS
  WCI - WIND CHILL INDEX
   HX - HEAT INDEX
  VSB - VISIBILITY




USA.gov is the U.S. government's official web portal to all federal, state and local government web resources and services.